Location: Newark
(44.4156°N, 12.1972°E)
Time: 21:08:46
(UTC+00:00)

STARLINK-1109 - Pass Details

Date: 28 January 2020
Orbit: 349 x 351 km, 53.0° (Epoch: 18 February)

Event Time Altitude Azimuth Distance (km) Brightness Sun altitude
Rises 17:19:28 0° 306° (NW) 2,167 7.3 -11.8°
Reaches altitude 10° 17:21:45 10° 322° (NW) 1,322 5.9 -12.2°
Maximum altitude 17:24:10 23° 18° (NNE) 818 4.2 -12.6°
Enters shadow 17:24:55 20° 42° (NE) 879 4.2 -12.8°
